Home   Weather   Bad Homburg   Past weeks

Flag for Germany Past Weather in Bad Homburg, Hesse, Germany — Yesterday and Last 2 Weeks

Now
75 °F

Broken clouds.


Feels Like: 77 °F
Forecast: 53 / 67 °F
Wind: 10 mph from Southwest

Location: Frankfurt-M-Flughafen Airport

Current Time: Aug 18, 2017 at 1:13:47 pm

Latest Report: Aug 18, 2017 at 12:50 pm


Visibility: N/A

Pressure: 29.95 "Hg

Humidity: 69%

Dew Point: 64 °F

Location of Bad HomburgLocation

Past Weather in Bad Homburg — Graph

°F

Bad Homburg Temperature Yesterday

Maximum temperature yesterday: 81 °F (at 2:50 pm)
Minimum temperature yesterday: 61 °F (at 5:20 am)
Average temperature yesterday: 71 °F

High & Low Weather Summary for the Past Weeks

 TemperatureHumidityPressure
High84 °F (Aug 3, 3:50 pm)100% (Aug 6, 5:50 am)30.21 "Hg (Aug 6, 5:50 am)
Low52 °F (Aug 6, 5:50 am)30% (Aug 7, 3:50 pm)29.83 "Hg (Aug 8, 6:20 am)
Average67 °F74%30.04 "Hg
* Reported Aug 3 12:20 pm — Aug 18 12:20 pm, Bad Homburg. Weather by CustomWeather, © 2017

Note: Actual official high and low records may vary slightly from our data, if they occured in-between our weather recording intervals... More about our weather records

Advertising

Bad Homburg Weather History for the Previous 24 Hours

Scroll right to see more
 ConditionsComfort  
Time TempWeatherWind HumidityBarometerVisibility
12:20 pm
Fri, Aug 18
75 °FBroken clouds.10 mph69%29.95 "HgN/A
11:50 am73 °FBroken clouds.13 mph74%29.95 "HgN/A
11:20 am73 °FBroken clouds.14 mph74%29.98 "HgN/A
10:50 am72 °FPartly sunny.9 mph78%29.95 "HgN/A
10:20 am70 °FLight rain. Broken clouds.9 mph83%29.95 "HgN/A
9:50 am70 °FLight rain. Broken clouds.8 mph78%29.95 "HgN/A
9:20 am70 °FBroken clouds.9 mph78%29.95 "HgN/A
8:50 am68 °FBroken clouds.8 mph83%29.98 "HgN/A
8:20 am66 °FBroken clouds.6 mph88%29.98 "HgN/A
7:50 am66 °FBroken clouds.3 mph88%29.95 "HgN/A
7:20 am64 °FBroken clouds.6 mph94%29.98 "HgN/A
6:50 am64 °FBroken clouds.3 mph94%29.98 "HgN/A
6:20 am63 °FBroken clouds.3 mph94%29.98 "HgN/A
5:50 am63 °FPassing clouds.3 mph94%29.98 "HgN/A
5:20 am64 °FClear.2 mph94%29.98 "Hg10 mi
4:50 am64 °FClear.2 mph88%29.98 "Hg10 mi
4:20 am64 °FClear.2 mph94%30.01 "Hg10 mi
3:50 am64 °FClear.1 mph94%30.01 "Hg10 mi
3:20 am64 °FClear.1 mph88%30.01 "Hg10 mi
2:50 am63 °FClear.2 mph94%30.01 "Hg10 mi
2:20 am64 °FClear.2 mph88%30.01 "Hg10 mi
1:50 am64 °FPassing clouds.5 mph88%30.01 "HgN/A
1:20 am66 °FClear.2 mph88%30.01 "Hg10 mi
12:50 am66 °FPassing clouds.3 mph83%30.01 "HgN/A
12:20 am66 °FClear.3 mph83%30.01 "Hg10 mi
11:50 pm
Thu, Aug 17
68 °FClear.6 mph78%30.04 "Hg10 mi
11:20 pm68 °FClear.3 mph83%30.04 "Hg10 mi
10:50 pm70 °FPassing clouds.3 mph73%30.04 "HgN/A
10:20 pm70 °FPassing clouds.3 mph73%30.04 "HgN/A
9:50 pm72 °FPassing clouds.7 mph69%30.04 "HgN/A
9:20 pm73 °FPassing clouds.6 mph61%30.04 "HgN/A
8:50 pm73 °FPassing clouds.9 mph61%30.04 "HgN/A
8:20 pm73 °FBroken clouds.7 mph61%30.01 "HgN/A
7:50 pm75 °FPartly sunny.9 mph57%30.04 "HgN/A
7:20 pm75 °FBroken clouds.12 mph57%30.01 "HgN/A
6:50 pm75 °FBroken clouds.12 mph57%30.01 "HgN/A
6:20 pm73 °FPartly sunny.9 mph61%30.04 "HgN/A
5:50 pm77 °FBroken clouds.12 mph51%30.04 "HgN/A
5:20 pm77 °FSprinkles. Partly sunny.10 mph54%30.01 "HgN/A
4:50 pm77 °FSprinkles. Broken clouds.13 mph51%30.01 "HgN/A
4:29 pm79 °FBroken clouds.17 mph48%30.01 "HgN/A
4:20 pm81 °FBroken clouds.18 mph48%30.01 "HgN/A
3:50 pm81 °FBroken clouds.15 mph51%30.01 "HgN/A
2:50 pm81 °FBroken clouds.17 mph51%30.01 "HgN/A
2:20 pm79 °FBroken clouds.14 mph58%30.04 "HgN/A
1:50 pm79 °FBroken clouds.9 mph65%30.04 "HgN/A
1:20 pm77 °FBroken clouds.10 mph65%30.04 "HgN/A
Weather by CustomWeather, © 2017

See weather overviewHow to use our weather pages